Tracking 20628 objects as of 6-Apr-2020
HD Live streaming from Space Station
objects crossing your sky now

COSMOS 2447 (GLONASS)

Track COSMOS 2447 (GLONASS) now!
COSMOS 2447 (GLONASS) is classified as:


NORAD ID: 33466
Int'l Code: 2008-067A
Perigee: 19,114.7 km
Apogee: 19,158.5 km
Inclination: 64.0 °
Period: 675.7 minutes
Semi major axis: 25507 km
RCS: 3.1623 m2 (large)
Launch date: December 25, 2008
Source: Commonwealth of Independent States (former USSR) (CIS)
Launch site: TYURATAM MISSILE AND SPACE COMPLEX (TTMTR)

This is satellite part of Glonass family.
aabbcc
Your satellite tracking list
Your tracking list is empty




NASA's NSSDC Master Catalog

Two Line Element Set (TLE):
1 33466U 08067A   20096.22638508 +.00000069 +00000-0 +00000-0 0  9999
2 33466 063.9939 147.6307 0008571 264.3043 152.2966 02.13107458087720
Source of the keplerian elements: AFSPC